Location: Wiler
(46.4041°N, 7.7840°E)
Time: 23:44:02
(UTC+00:00)

Cosmos 540 Rocket - Pass Details

Date: 09 April 2020
Orbit: 741 x 753 km, 74.1° (Epoch: 22 May)

Event Time Altitude Azimuth Distance (km) Brightness Sun altitude
Rises 21:27:30 0° 334° (NNW) 3,212 7.9 -29.1°
Reaches altitude 10° 21:29:54 10° 330° (NNW) 2,281 6.9 -29.3°
Enters shadow 21:34:18 52° 284° (WNW) 934 4.1 -29.8°
